Flag for China Weather past 2 weeks in Guilin, China

Now
68 °F

Fog.


Feels Like: 68 °F
Forecast: 67 / 74 °F
Wind: No wind

Location: Guilin Airport


UV Index: 3 (Moderate)

Visibility: 3 mi


Pressure: 29.80 "Hg

Humidity: 88%

Dew point: 64 °F

Location of GuilinLocation

Historic Weather in Guilin

°F

Guilin temperature yesterday

Maximum temperature yesterday: 64 °F (at 11:00 AM)
Minimum temperature yesterday: 61 °F (at 5:00 AM)
Average temperature yesterday: 63 °F

Past Weeks' High & Low Weather Summary

 TemperatureHumidityPressure
High86 °F (Apr 18, 3:00 PM)100% (Apr 11, 1:00 AM)30.09 "Hg (Apr 11, 1:00 AM)
Low61 °F (Apr 23, 2:00 AM)51% (Apr 14, 2:00 PM)29.74 "Hg (Apr 16, 4:00 PM)
Average70 °F85%29.88 "Hg
* Reported Apr 10 3:00 PM — Apr 25 3:00 PM, Guilin, Weather by CustomWeather, © 2014

Note: Actual official high and low records may vary slightly from our data, if they occured in-between our weather recording intervals... More about our weather records

Advertising

Historic Weather Conditions — Data for Previous 24 hours

 ConditionsComfort  
Time TempWeatherWind HumidityBarometerVisibility
3:00 PM
Apr 25
68 °FFog.1 mph88%29.83 "Hg3 mi
2:00 PM68 °FLight rain. Fog.No wind88%29.83 "Hg3 mi
1:00 PM66 °FMostly cloudy.1 mph88%29.86 "Hg4 mi
12:00 PM66 °FMostly cloudy.3 mph88%29.89 "Hg4 mi
11:00 AM64 °FLight rain. Fog.No wind94%29.89 "Hg2 mi
10:00 AM64 °FLight rain. Fog.No wind94%29.89 "Hg2 mi
9:00 AM64 °FLight rain. Fog.No wind94%29.89 "Hg1 mi
8:00 AM64 °FLight rain. Fog.1 mph94%29.86 "Hg1 mi
7:00 AM63 °FLight rain. Fog.1 mph100%29.83 "Hg1 mi
6:00 AM64 °FLight rain. Fog.No wind94%29.83 "Hg2 mi
5:00 AM63 °FThunderstorms. Fog.No wind100%29.80 "Hg2 mi
4:00 AM63 °FLight rain. Fog.3 mph100%29.80 "Hg2 mi
3:00 AM64 °FLight rain. Fog.No wind94%29.80 "Hg1 mi
2:00 AM64 °FLight rain. Fog.1 mph94%29.83 "Hg1 mi
1:00 AM64 °FLight rain. Fog.3 mph94%29.86 "Hg1 mi
12:00 AM64 °FLight rain. Fog.3 mph94%29.86 "Hg1 mi
11:00 PM
Apr 24
64 °FLight rain. Fog.1 mph94%29.86 "Hg1 mi
10:00 PM64 °FLight rain. Fog.1 mph94%29.83 "Hg1 mi
9:00 PM64 °FLight rain. Fog.3 mph94%29.83 "Hg1 mi
8:00 PM64 °FLight rain. Fog.3 mph94%29.80 "Hg1 mi
7:00 PM64 °FLight rain. Fog.3 mph94%29.77 "Hg1 mi
6:00 PM64 °FLight rain. Fog.1 mph94%29.77 "Hg1 mi
5:00 PM64 °FLight rain. Fog.3 mph94%29.77 "Hg1 mi
4:00 PM64 °FLight rain. Fog.1 mph94%29.77 "Hg1 mi
Weather by CustomWeather, © 2014

See weather overview